Location: Grieser Field
(39.7333°N, 81.7975°W)
Time: 07:37:54
(UTC-04:00)

Meteor 2-1 Rocket - Visible Passes

Search period start: 25 March 2017 00:00
Search period end: 04 April 2017 00:00
Orbit: 829 x 908 km, 81.3° (Epoch: 23 March)

Date Brightness Start Highest point End Pass type
(mag) Time Alt. Az. Time Alt. Az. Time Alt. Az.
25 Mar 5.8 22:06:11 22° NE 22:06:11 22° NE 22:08:21 10° NNE visible
25 Mar 6.4 23:48:31 22° NW 23:48:31 22° NW 23:51:13 10° NNW visible
26 Mar 5.4 21:58:47 27° NE 21:58:47 27° NE 22:01:40 10° NNE visible
26 Mar 6.2 23:41:07 24° NW 23:41:07 24° NW 23:44:31 10° NNW visible
27 Mar 5.0 21:51:15 34° ENE 21:51:15 34° ENE 21:55:01 10° NNE visible
27 Mar 6.1 23:33:34 25° WNW 23:33:34 25° WNW 23:37:48 10° NNW visible
28 Mar 4.7 21:43:32 41° E 21:43:32 41° E 21:48:21 10° NNE visible
28 Mar 6.1 23:25:50 24° W 23:26:28 25° WNW 23:31:05 10° NNW visible
29 Mar 4.5 21:35:33 40° ESE 21:36:23 43° E 21:41:41 10° NNE visible
29 Mar 6.2 23:17:50 20° W 23:19:49 24° WNW 23:24:22 10° NNW visible
30 Mar 4.5 21:27:08 27° SE 21:29:42 44° E 21:35:01 10° NNE visible
30 Mar 6.2 23:09:22 13° WSW 23:13:09 24° WNW 23:17:40 10° NNW visible
31 Mar 4.5 21:17:41 10° SSE 21:23:02 45° E 21:28:22 10° NNE visible
31 Mar 6.3 23:02:01 10° WSW 23:06:29 23° WNW 23:10:57 10° NNW visible
01 Apr 4.5 21:10:56 10° SSE 21:16:21 45° E 21:21:42 10° NNE visible
01 Apr 6.4 22:55:25 10° WSW 22:59:51 23° WNW 23:04:13 10° NNW visible
02 Apr 4.5 21:04:14 10° SSE 21:09:40 46° E 21:15:01 10° NNE visible
02 Apr 6.4 22:48:49 10° WSW 22:53:11 22° WNW 22:57:31 10° NNW visible
03 Apr 4.4 20:57:33 10° SSE 21:03:00 47° E 21:08:22 10° NNE visible
03 Apr 6.5 22:42:13 10° WSW 22:46:32 22° WNW 22:50:47 10° NNW visible
